Showing default

MICROSCOPE, 41457

Orbit data source: Space-Track

MICROSCOPE, 41457 is a payload satellite owned by CNES (FR) in SSO that was launched on Mon, 25 Apr 2016 UTC via a SOYUZ-ST-A launch vehicle from the French Guiana (FRGUI). Payload-class satellites include a variety of spacecraft equipped with specific instruments for various scientific and technological missions. These include communications satellites like Starlink; space stations such as the ISS; scientific satellites like the Hubble; Earth observation satellites from companies like Planet Labs, Umbra, and HawkEye 360; GPS; miniature CubeSats for education and research; and military/defense satellites.

Loading next visibility...
Identifier
41457, 2016-025B
Orbit
SSO
Country
Flag of FRFR
Related business
Manufacturer
ONERA/CNES
Mission
Non-operational Civil Science
Bus & Motor
MYRIADE, Unknown motor
Mass
303 kg wet, 303 kg dry
Launch date (UTC)
2016-04-25 (10 years ago)
Launch vehicle
SOYUZ-ST-A
Launch site
French Guiana (FRGUI)
Object type
Payload
Rocket body
Debris
Shape & HBR
Box + 2 Pan + 2 Rod, 1.6 m
Radar Cross Section
4.027 m², Large (>1 m²)

Expand to show TLE details & history
Last TLE update: 15 hours ago

TLE from 15 hours ago
0 MICROSCOPE
1 41457U 16025B   25300.95080757  .00001529  00000-0  33559-3 0  9991
2 41457  98.2526 310.0422 0001221 108.3915 251.7417 14.59009139504850
Epoch: 2025-10-27T22:49Z
TLE epoch observation values (Epoch: 2025-10-27T22:49:09.774Z)
Latitude
-0.00002°
Longitude
-68.79382°
Altitude
699.628 km
Speed
7.506 km/s
True Right ascension
20h 40m 10s
True Declination
0° 00' 00"
Sunlit
Object was in daylight at epoch
Visualization orbit readout
Latitude
Unknown
Longitude
Unknown
Altitude
Unknown
Speed
Unknown
Apparent Right ascension
Unknown
Apparent Declination
Unknown
Sunlit
N/A
Visualization observer readout
Local Sidereal Time
09:24:50
Azimuth
Unknown
Elevation
Unknown
Doppler factor
Unknown
Orbital elements
Apogee altitude
694.324 km
Perigee altitude
692.597 km
Semi-major axis
7,071.597 km
Eccentricity
0.00012
Inclination
98.2526°
RAAN
310.0422°
Arg. of periapsis
108.3915°
True anomaly
251.72841°
Mean anomaly
251.7417°
Eccentric anomaly
251.73506°
Mean motion
3.64978 °/min
Orbital period
98.64 mins
BSTAR
0.00033559
Loading maneuver chart data...
Computing Atmospheric mass density...
Loading historical data...
Loading historical data...
Loading historical data...
Loading historical data...
Loading historical data...
Loading historical data...
Loading historical data...

Documentation

Showing up to 5 results
|